[[{"header":{"parameterUnit":"m.s-1","parameterCategory":1,"la1":30.2992,"la2":30.254,"lo1":-89.0895,"lo2":-89.0443,"dy":0.0025,"dx":0.0025,"nx":19,"ny":19,"refTime":"2026-05-03T03:00:00:Z","depth":0,"parameterNumber":2,"parameterNumberName":"U-component_of_WINDS"},"data":[0,0,0,-0.6615,-0.6615,-0.6617,-0.6617,-0.6625,-0.6625,0,0,0,0,0,0,0,0,0,0,0,-0.6617,-0.6617,-0.6615,-0.6615,-0.6617,-0.6617,-0.6625,-0.6625,0,0,0,0,0,0,0,0,0,0,0,-0.6617,-0.6617,-0.6617,-0.6615,-0.6617,-0.6617,-0.6625,-0.6622,0,0,0,0,0,0,0,0,0,0,-0.6619,-0.6623,-0.6617,-0.6617,-0.6615,-0.6617,-0.6617,-0.6622,-0.6622,-0.6626,0,-0.6629,0,-0.6627,-0.6626,-0.6626,0,0,0,-0.6614,-0.6622,-0.6621,-0.6617,-0.6615,-0.6617,-0.6616,-0.6622,-0.6622,-0.6627,-0.663,-0.663,-0.6627,-0.6626,-0.6626,-0.6653,-0.6653,0,0,-0.6614,-0.6619,-0.662,-0.6621,-0.662,-0.6616,-0.6616,-0.6622,-0.6626,-0.663,-0.663,-0.6628,-0.6626,-0.6626,-0.6653,-0.6653,0,0,0,-0.6615,-0.6619,-0.6617,-0.6621,-0.6621,-0.6616,-0.6616,-0.6625,-0.6624,-0.663,-0.6628,-0.6626,-0.6626,-0.6653,-0.6653,-0.6668,0,0,0,-0.6614,-0.6619,-0.6617,-0.662,-0.6621,-0.6623,-0.6619,-0.6624,-0.6624,-0.6628,-0.6626,-0.6626,-0.6652,-0.6653,-0.6667,-0.6674,0,0,0,-0.6616,-0.6619,-0.662,-0.662,-0.6621,-0.6623,-0.6622,-0.6624,-0.6623,-0.6626,-0.6626,-0.6652,-0.6653,-0.6666,-0.6673,-0.6683,0,0,0,-0.662,-0.6633,-0.6621,-0.6635,-0.6621,-0.6631,-0.6622,-0.6629,-0.6633,-0.6626,-0.6653,-0.6653,-0.6666,-0.6672,-0.6682,-0.6693,-0.6698,0,0,-0.6639,-0.6636,-0.6644,-0.6633,-0.6646,-0.6631,-0.6647,-0.6646,-0.6642,-0.665,-0.6651,-0.6667,-0.6673,-0.6683,-0.6722,-0.6726,0,0,0,-0.6652,-0.6658,-0.666,-0.6664,-0.6663,-0.6664,-0.666,-0.666,-0.6666,-0.6647,-0.6673,-0.6676,-0.6682,-0.6687,-0.6691,-0.6696,-0.6655,-0.6655,-0.6655,-0.6687,-0.6681,-0.6694,-0.6689,-0.6693,-0.6689,-0.6692,-0.6691,-0.6684,-0.6691,-0.6693,-0.6717,-0.6723,-0.6726,-0.6731,-0.6698,-0.6698,-0.6698,-0.6698,-0.6716,-0.6724,-0.6714,-0.6724,-0.6718,-0.6726,-0.6724,-0.6718,-0.6726,-0.6715,-0.672,-0.6708,-0.673,-0.6735,-0.6699,-0.6699,-0.6699,-0.6698,-0.6698,-0.6739,-0.6742,-0.6741,-0.6746,-0.6752,-0.6746,-0.6754,-0.6748,-0.6743,-0.6748,-0.675,-0.675,-0.675,-0.6749,-0.6749,-0.6749,-0.675,-0.675,-0.675,-0.6763,-0.6762,-0.6769,-0.677,-0.6772,-0.6774,-0.6771,-0.6774,-0.6775,-0.677,-0.677,-0.6763,-0.6733,-0.6726,-0.6751,-0.6751,-0.6751,-0.675,-0.675,-0.6796,-0.6788,-0.6798,-0.6801,-0.6802,-0.6808,-0.6801,-0.6806,-0.6807,-0.6812,-0.6804,-0.6782,-0.6778,-0.6775,-0.677,-0.6804,-0.6804,-0.6804,-0.6804,-0.6816,-0.6813,-0.6823,-0.6827,-0.6831,-0.6825,-0.6839,-0.6838,-0.6835,-0.6835,-0.6829,-0.6821,-0.6818,-0.6816,-0.6812,-0.6807,-0.685,-0.6851,-0.6851,-0.6836,-0.6834,-0.6846,-0.6842,-0.6843,-0.6844,-0.6858,-0.6864,-0.6859,-0.6852,-0.6836,-0.6834,-0.682,-0.6816,-0.681,-0.6804,-0.6794,0,0]},{"header":{"parameterUnit":"m.s-1","parameterCategory":1,"la1":30.2992,"la2":30.254,"lo1":-89.0895,"lo2":-89.0443,"dy":0.0025,"dx":0.0025,"nx":19,"ny":19,"refTime":"2026-05-03T03:00:00:Z","depth":0,"parameterNumber":3,"parameterNumberName":"V-component_of_WINDS"},"data":[0,0,0,4.155,4.1551,4.1576,4.1576,4.1615,4.1616,0,0,0,0,0,0,0,0,0,0,0,4.1548,4.1548,4.155,4.1551,4.1576,4.1576,4.1615,4.1616,0,0,0,0,0,0,0,0,0,0,0,4.1548,4.1548,4.1549,4.1551,4.1576,4.1576,4.1615,4.1593,0,0,0,0,0,0,0,0,0,0,4.1568,4.1571,4.1548,4.1549,4.1551,4.1576,4.1576,4.1592,4.1595,4.1607,0,4.162,0,4.1618,4.1619,4.1619,0,0,0,4.1547,4.1569,4.1571,4.1549,4.1552,4.1576,4.1564,4.1594,4.1596,4.161,4.162,4.1622,4.1619,4.1619,4.1619,4.1704,4.1704,0,0,4.1546,4.1555,4.1569,4.1573,4.1571,4.1563,4.1565,4.1595,4.1606,4.1621,4.1622,4.162,4.1619,4.162,4.1703,4.1704,0,0,0,4.1544,4.1554,4.1556,4.1572,4.1576,4.1564,4.1566,4.1605,4.1605,4.1623,4.162,4.162,4.162,4.1703,4.1704,4.174,0,0,0,4.1543,4.1554,4.1555,4.1561,4.1575,4.1591,4.1575,4.1603,4.1606,4.162,4.162,4.1621,4.1702,4.1703,4.1738,4.1756,0,0,0,4.1545,4.1554,4.1559,4.1562,4.1573,4.159,4.1592,4.1603,4.1605,4.1619,4.1621,4.1702,4.1703,4.1736,4.1752,4.1779,0,0,0,4.1548,4.1592,4.156,4.1607,4.1573,4.1614,4.1591,4.1621,4.1638,4.162,4.1702,4.1703,4.1735,4.175,4.1777,4.1803,4.1815,0,0,4.1608,4.16,4.1627,4.1599,4.1647,4.1609,4.1663,4.1669,4.1662,4.169,4.1692,4.1739,4.1752,4.1779,4.1882,4.1892,0,0,0,4.1649,4.1668,4.1679,4.1696,4.1702,4.1708,4.1706,4.1708,4.1731,4.1679,4.1757,4.1764,4.178,4.1791,4.1799,4.1811,4.171,4.171,4.171,4.1746,4.1735,4.1778,4.177,4.1786,4.1783,4.1795,4.1797,4.1781,4.18,4.1807,4.1871,4.1886,4.1892,4.1904,4.1821,4.1821,4.1822,4.1822,4.1831,4.1856,4.1834,4.1868,4.1855,4.1884,4.1882,4.187,4.1893,4.1865,4.1878,4.1846,4.1903,4.1913,4.1824,4.1824,4.1824,4.1823,4.1823,4.1892,4.1902,4.1905,4.1927,4.1945,4.1935,4.1958,4.1947,4.1935,4.1949,4.1954,4.1953,4.195,4.1952,4.1953,4.1953,4.1953,4.1953,4.1953,4.1954,4.1955,4.1977,4.1987,4.1995,4.2005,4.2002,4.201,4.2015,4.2005,4.2005,4.1986,4.1911,4.1891,4.1957,4.1956,4.1956,4.1955,4.1955,4.2041,4.202,4.2053,4.2062,4.2072,4.209,4.2075,4.2091,4.2096,4.2108,4.2087,4.2034,4.2024,4.2017,4.2,4.209,4.209,4.209,4.209,4.2091,4.2086,4.2116,4.213,4.2143,4.2132,4.2169,4.2167,4.2161,4.2163,4.2149,4.2127,4.2121,4.2114,4.2105,4.209,4.22,4.22,4.22,4.2144,4.2138,4.2172,4.2167,4.2174,4.2179,4.2213,4.2229,4.2219,4.2204,4.2164,4.216,4.2124,4.2113,4.2096,4.2082,4.2053,0,0]}]]